Regional Weather Roundup
Issued by NWS

Home | Current Version | Previous Version | Text Only | Print | Product List | Glossary Off
Versions: 1 2 3 4 5 6 7 8 9 10 11 12 13 14 15 16 17 18 19 20 21 22 23 24 25 26 27 28 29 30 31 32 33 34 35 36 37 38 39 40 41 42 43 44 45 46 47 48 49 50

953
ASUS43 KFSD 301702
RWRSD

WEATHER ROUNDUP FOR SOUTH DAKOTA
NATIONAL WEATHER SERVICE SIOUX FALLS SD
1200 PM CDT SAT JUL 30 2016

NOTE: "FAIR" INDICATES FEW OR NO CLOUDS BELOW 12,000 FEET WITH NO
SIGNIFICANT WEATHER AND/OR OBSTRUCTIONS TO VISIBILITY.


SDZ001>005-009-010-012>017-301800-
NORTHWEST AND NORTH CENTRAL SOUTH DAKOTA

CITY           SKY/WX    TMP DP  RH WIND       PRES   REMARKS
BUFFALO          N/A     83  56  39 E10       29.85F
FAITH            N/A     80  60  50 SE15      29.90F
MOBRIDGE       SUNNY     84  61  45 S18G25    29.89F
$$

SDZ012>016-024>037-041>051-057-063-072>074-301800-
SOUTHWEST AND SOUTH CENTRAL SOUTH DAKOTA

CITY           SKY/WX    TMP DP  RH WIND       PRES   REMARKS
RAPID CTY ARPT SUNNY     83  58  42 S14G21    29.93F
PIERRE         SUNNY     84  60  44 S18       29.89F
CUSTER         SUNNY     77  55  46 S7        30.06F
ELLSWORTH AFB  SUNNY     83  57  41 SE13      29.92F
PHILIP         SUNNY     83  63  50 S12       29.90F
PINE RIDGE     SUNNY     81  63  54 VRB7      29.96F
WINNER         FAIR      82  59  45 S17G25    29.95
$$

SDZ004>011-016>023-039-040-301800-
NORTHEAST SOUTH DAKOTA

CITY           SKY/WX    TMP DP  RH WIND       PRES   REMARKS
ABERDEEN       SUNNY     79  59  50 S15       29.96F
WATERTOWN      SUNNY     76  58  53 S12       30.01F
BROOKINGS      MOSUNNY   75  59  57 VRB7      30.02F
SISSETON         N/A     78  55  44 S14       29.98F
$$

SDZ017-020-022-023-036>040-048>070-301800-
SOUTHEAST SOUTH DAKOTA

CITY           SKY/WX    TMP DP  RH WIND       PRES   REMARKS
SIOUX FALLS    MOSUNNY   76  57  51 VRB3      30.02F
HURON          SUNNY     79  58  48 SE13G22   29.96F
CHAMBERLAIN    SUNNY     81  66  59 S10       29.95S
MITCHELL       MOSUNNY   80  62  54 SE15      29.98S
YANKTON        SUNNY     79  61  53 S8        29.99S
$$

ABBREVIATIONS USED IN REMARKS
   TC - TEMPERATURE IN CELSIUS
  WCI - WIND CHILL INDEX
   HX - HEAT INDEX
  VSB - VISIBILITY





USA.gov is the U.S. government's official web portal to all federal, state and local government web resources and services.